GW6532 Weather Reports


Display with metric or nautical units.
time (UTC)temp
F
wind
direction
speed
MPH
gust
MPH
rain 1hr
in
rain 24hr
in
rain mn
in
humidity
%
barometer
mb
20260905234734 90 299 1.0 2.0 0.00 0.00 0.00 63 1011.8
20260905234229 90 300 1.0 1.0 0.00 0.00 0.00 61 1011.9
20260905233724 90 303 1.0 2.0 0.00 0.00 0.00 61 1011.9
20260905233223 90 302 2.0 2.0 0.00 0.00 0.00 59 1011.8
20260905232718 90 298 2.0 3.0 0.00 0.00 0.00 61 1011.9
20260905232214 90 284 2.0 2.0 0.00 0.00 0.00 63 1011.8
20260905231710 90 299 2.0 2.0 0.00 0.00 0.00 63 1011.7
20260905231205 91 311 1.0 2.0 0.00 0.00 0.00 62 1011.8
20260905230701 92 341 1.0 2.0 0.00 0.00 0.00 59 1011.7
20260905230159 92 306 1.0 2.0 0.00 0.00 0.00 55 1011.6
20260905225658 92 328 0.0 2.0 0.00 0.00 0.00 57 1011.7
20260905225154 91 296 1.0 2.0 0.00 0.00 0.00 64 1011.7
20260905224654 92 348 4.0 4.0 0.00 0.00 0.00 63 1011.7
20260905224153 93 336 1.0 1.0 0.00 0.00 0.00 57 1011.6
20260905223650 93 300 1.0 2.0 0.00 0.00 0.00 59 1011.7
20260905223147 94 358 0.0 1.0 0.00 0.00 0.00 52 1011.8
20260905222642 94 339 1.0 2.0 0.00 0.00 0.00 50 1011.6
20260905222137 95 340 2.0 2.0 0.00 0.00 0.00 50 1011.5
20260905221632 96 319 0.0 1.0 0.00 0.00 0.00 47 1011.6
20260905221129 96 319 1.0 2.0 0.00 0.00 0.00 47 1011.5
20260905220624 97 333 1.0 2.0 0.00 0.00 0.00 47 1011.8
20260905220120 98 341 2.0 3.0 0.00 0.00 0.00 44 1011.7
20260905215620 100 330 3.0 4.0 0.00 0.00 0.00 40 1011.7
20260905215116 101 288 3.0 4.0 0.00 0.00 0.00 38 1011.6
20260905214612 102 294 3.0 4.0 0.00 0.00 0.00 37 1011.7
20260905214112 102 300 2.0 4.0 0.00 0.00 0.00 37 1011.9
20260905213607 102 276 4.0 5.0 0.00 0.00 0.00 37 1011.7
20260905213102 102 289 3.0 4.0 0.00 0.00 0.00 39 1011.8
20260905212602 103 310 3.0 3.0 0.00 0.00 0.00 37 1011.8
20260905212102 102 272 2.0 3.0 0.00 0.00 0.00 35 1011.8
20260905211557 102 266 5.0 5.0 0.00 0.00 0.00 36 1011.8
20260905211052 103 329 2.0 3.0 0.00 0.00 0.00 37 1011.9
20260905210548 103 315 3.0 4.0 0.00 0.00 0.00 36 1012.0
20260905210043 102 335 2.0 3.0 0.00 0.00 0.00 36 1012.0
20260905205543 103 279 2.0 4.0 0.00 0.00 0.00 37 1012.3
20260905205042 102 300 4.0 4.0 0.00 0.00 0.00 35 1012.2
20260905204537 103 256 2.0 2.0 0.00 0.00 0.00 35 1012.1
20260905204032 101 287 2.0 4.0 0.00 0.00 0.00 41 1012.2
20260905203532 101 347 2.0 4.0 0.00 0.00 0.00 39 1012.3
20260905203027 102 288 2.0 4.0 0.00 0.00 0.00 39 1012.2
20260905202522 100 340 1.0 5.0 0.00 0.00 0.00 43 1012.3
20260905202018 100 295 3.0 3.0 0.00 0.00 0.00 39 1012.2
20260905201514 100 284 3.0 6.0 0.00 0.00 0.00 40 1012.5
20260905201013 102 299 4.0 4.0 0.00 0.00 0.00 40 1012.5
20260905200509 103 311 1.0 2.0 0.00 0.00 0.00 40 1012.5
20260905200008 100 25 2.0 5.0 0.00 0.00 0.00 37 1012.7
20260905195502 101 257 2.0 6.0 0.00 0.00 0.00 37 1012.9
20260905194958 102 342 2.0 4.0 0.00 0.00 0.00 38 1012.8
20260905194457 102 46 2.0 3.0 0.00 0.00 0.00 38 1013.2
20260905193957 101 321 3.0 4.0 0.00 0.00 0.00 40 1013.1
20260905193452 101 317 3.0 6.0 0.00 0.00 0.00 39 1013.1
20260905192947 101 354 3.0 6.0 0.00 0.00 0.00 39 1013.2
20260905192442 103 288 2.0 5.0 0.00 0.00 0.00 37 1013.2
20260905191938 101 244 2.0 2.0 0.00 0.00 0.00 37 1013.3
20260905191438 101 288 6.0 6.0 0.00 0.00 0.00 40 1013.3
20260905190937 101 293 3.0 4.0 0.00 0.00 0.00 40 1013.5
20260905190435 101 350 2.0 3.0 0.00 0.00 0.00 40 1013.6
20260905185934 101 349 2.0 4.0 0.00 0.00 0.00 40 1013.6
20260905185429 100 242 2.0 6.0 0.00 0.00 0.00 40 1013.5
20260905184928 101 274 2.0 5.0 0.00 0.00 0.00 40 1013.7
20260905184423 101 287 3.0 3.0 0.00 0.00 0.00 43 1013.7
20260905183921 100 288 2.0 3.0 0.00 0.00 0.00 41 1013.7
20260905183416 100 325 0.0 3.0 0.00 0.00 0.00 45 1013.6
20260905182911 100 283 1.0 4.0 0.00 0.00 0.00 42 1013.6
20260905182410 99 3 2.0 2.0 0.00 0.00 0.00 42 1013.9
20260905181907 99 354 3.0 4.0 0.00 0.00 0.00 42 1013.8
20260905181406 99 340 3.0 7.0 0.00 0.00 0.00 41 1014.0
20260905180905 100 304 3.0 5.0 0.00 0.00 0.00 41 1013.9
20260905180400 100 175 0.0 3.0 0.00 0.00 0.00 42 1014.1
20260905175855 100 211 1.0 2.0 0.00 0.00 0.00 40 1014.2
20260905175355 100 350 2.0 3.0 0.00 0.00 0.00 39 1014.3
20260905174850 99 21 3.0 6.0 0.00 0.00 0.00 39 1014.4
20260905174346 98 303 3.0 5.0 0.00 0.00 0.00 41 1014.4
20260905173841 98 348 3.0 4.0 0.00 0.00 0.00 46 1014.3
20260905173337 99 282 4.0 5.0 0.00 0.00 0.00 42 1014.4
20260905172832 98 311 2.0 5.0 0.00 0.00 0.00 46 1014.4
20260905172330 99 211 3.0 5.0 0.00 0.00 0.00 42 1014.4
20260905171826 98 305 4.0 6.0 0.00 0.00 0.00 48 1014.6
20260905171323 97 285 5.0 5.0 0.00 0.00 0.00 45 1014.7
20260905170819 98 300 2.0 5.0 0.00 0.00 0.00 46 1014.8
20260905170314 99 299 2.0 2.0 0.00 0.00 0.00 44 1014.7
20260905165813 96 292 5.0 5.0 0.00 0.00 0.00 48 1014.8
20260905165310 96 256 5.0 6.0 0.00 0.00 0.00 46 1014.9
20260905164809 96 286 4.0 6.0 0.00 0.00 0.00 47 1014.9
20260905164309 96 273 3.0 4.0 0.00 0.00 0.00 49 1015.0
20260905163805 96 272 5.0 7.0 0.00 0.00 0.00 45 1015.0
20260905163301 97 270 4.0 6.0 0.00 0.00 0.00 45 1015.0
20260905162757 97 282 5.0 5.0 0.00 0.00 0.00 47 1015.2
20260905162256 96 312 2.0 4.0 0.00 0.00 0.00 51 1014.9
20260905161751 98 331 3.0 3.0 0.00 0.00 0.00 46 1015.1
20260905161250 95 311 2.0 4.0 0.00 0.00 0.00 50 1015.2
20260905160748 96 288 4.0 4.0 0.00 0.00 0.00 49 1015.1
20260905160243 97 359 1.0 3.0 0.00 0.00 0.00 48 1015.3
20260905155738 95 289 3.0 4.0 0.00 0.00 0.00 49 1015.3
20260905155237 96 302 3.0 5.0 0.00 0.00 0.00 52 1015.2
20260905154730 97 277 2.0 2.0 0.00 0.00 0.00 48 1015.3
20260905154227 96 338 0.0 1.0 0.00 0.00 0.00 52 1015.3
20260905153717 94 291 2.0 3.0 0.00 0.00 0.00 53 1015.2
20260905153213 94 271 4.0 5.0 0.00 0.00 0.00 53 1015.3
20260905152713 93 261 4.0 6.0 0.00 0.00 0.00 54 1015.3
20260905152207 94 289 3.0 6.0 0.00 0.00 0.00 55 1015.1
20260905151707 95 291 2.0 2.0 0.00 0.00 0.00 54 1015.3
20260905151203 95 261 1.0 2.0 0.00 0.00 0.00 52 1015.4
20260905150658 93 246 1.0 2.0 0.00 0.00 0.00 57 1015.2
20260905150156 93 253 2.0 2.0 0.00 0.00 0.00 57 1015.4
20260905145654 93 293 2.0 3.0 0.00 0.00 0.00 57 1015.3
20260905145149 94 307 3.0 3.0 0.00 0.00 0.00 58 1015.4
20260905144649 92 288 2.0 3.0 0.00 0.00 0.00 59 1015.2
20260905144149 92 10 2.0 3.0 0.00 0.00 0.00 58 1015.3
20260905143648 93 275 2.0 2.0 0.00 0.00 0.00 57 1015.4
20260905143148 91 320 2.0 3.0 0.00 0.00 0.00 63 1015.2
20260905142647 91 344 4.0 4.0 0.00 0.00 0.00 61 1015.2
20260905142147 90 337 3.0 4.0 0.00 0.00 0.00 60 1015.3
20260905141642 89 311 2.0 3.0 0.00 0.00 0.00 61 1015.4
20260905141138 89 270 2.0 2.0 0.00 0.00 0.00 64 1015.3
20260905140633 89 257 0.0 3.0 0.00 0.00 0.00 61 1015.4
20260905140133 89 298 2.0 3.0 0.00 0.00 0.00 60 1015.3
20260905135627 89 333 1.0 2.0 0.00 0.00 0.00 60 1015.3
20260905135123 88 353 1.0 2.0 0.00 0.00 0.00 63 1015.6
20260905134618 88 4 2.0 2.0 0.00 0.00 0.00 64 1015.3
20260905134116 88 338 1.0 2.0 0.00 0.00 0.00 66 1015.5
20260905133613 86 300 1.0 2.0 0.00 0.00 0.00 67 1015.4
20260905133112 85 299 2.0 2.0 0.00 0.00 0.00 69 1015.4
20260905132612 86 318 2.0 2.0 0.00 0.00 0.00 71 1015.4
20260905132107 85 326 1.0 2.0 0.00 0.00 0.00 71 1015.2
20260905131602 84 1 2.0 2.0 0.00 0.00 0.00 72 1015.4
20260905131057 84 349 2.0 2.0 0.00 0.00 0.00 73 1015.3
20260905130556 84 327 1.0 2.0 0.00 0.00 0.00 74 1015.3
20260905130051 83 316 0.0 2.0 0.00 0.00 0.00 82 1015.2
20260905125551 81 333 2.0 2.0 0.00 0.00 0.00 85 1015.2
20260905125047 80 315 0.0 1.0 0.00 0.00 0.00 88 1015.3
20260905124543 79 319 0.0 2.0 0.00 0.00 0.00 88 1015.1
20260905124039 78 293 0.0 2.0 0.00 0.00 0.00 88 1015.1
20260905123534 77 318 0.0 1.0 0.00 0.00 0.00 89 1014.9
20260905123031 77 324 1.0 2.0 0.00 0.00 0.00 89 1015.1
20260905122530 77 331 1.0 2.0 0.00 0.00 0.00 89 1015.2
20260905122025 77 352 1.0 2.0 0.00 0.00 0.00 89 1015.0
20260905121520 76 266 0.0 1.0 0.00 0.00 0.00 89 1014.9
20260905121015 76 302 0.0 2.0 0.00 0.00 0.00 89 1014.8
20260905120514 75 287 0.0 2.0 0.00 0.00 0.00 89 1014.8
20260905120011 75 288 1.0 2.0 0.00 0.00 0.00 89 1015.1
20260905115509 75 273 0.0 0.0 0.00 0.00 0.00 89 1015.0
20260905115004 75 318 0.0 2.0 0.00 0.00 0.00 89 1014.8
20260905114503 75 325 1.0 2.0 0.00 0.00 0.00 89 1014.7
20260905114002 75 300 2.0 2.0 0.00 0.00 0.00 89 1014.6
20260905113458 75 300 2.0 2.0 0.00 0.00 0.00 89 1014.8
20260905112953 75 303 0.0 1.0 0.00 0.00 0.00 89 1014.7
20260905112448 75 274 0.0 1.0 0.00 0.00 0.00 89 1014.5
20260905111943 75 300 0.0 1.0 0.00 0.00 0.00 89 1014.7
20260905111437 75 313 1.0 2.0 0.00 0.00 0.00 89 1014.6
20260905110932 75 358 1.0 2.0 0.00 0.00 0.00 89 1014.6
20260905110431 75 300 0.0 1.0 0.00 0.00 0.00 89 1014.7
20260905105931 75 296 1.0 2.0 0.00 0.00 0.00 89 1014.7
20260905105426 75 347 0.0 1.0 0.00 0.00 0.00 89 1014.5
20260905104925 75 315 0.0 1.0 0.00 0.00 0.00 89 1014.5
20260905104422 75 288 0.0 2.0 0.00 0.00 0.00 89 1014.6
20260905103921 75 252 1.0 2.0 0.00 0.00 0.00 89 1014.3
20260905103417 75 295 1.0 2.0 0.00 0.00 0.00 89 1014.4
20260905102913 75 300 0.0 2.0 0.00 0.00 0.00 89 1014.4
20260905102410 75 328 0.0 1.0 0.00 0.00 0.00 89 1014.3
20260905101909 75 300 0.0 1.0 0.00 0.00 0.00 89 1014.2
20260905101407 75 324 0.0 1.0 0.00 0.00 0.00 89 1014.3
20260905100902 75 287 0.0 1.0 0.00 0.00 0.00 89 1014.2
20260905100358 75 300 0.0 1.0 0.00 0.00 0.00 89 1014.3
20260905095857 75 236 0.0 0.0 0.00 0.00 0.00 89 1014.1
20260905095352 75 261 0.0 2.0 0.00 0.00 0.00 89 1014.1
20260905094847 75 334 0.0 1.0 0.00 0.00 0.00 89 1014.2
20260905094342 75 317 1.0 2.0 0.00 0.00 0.00 89 1014.0
20260905093841 76 306 1.0 2.0 0.00 0.00 0.00 89 1014.1
20260905093337 76 296 1.0 2.0 0.00 0.00 0.00 89 1013.9
20260905092833 76 262 1.0 2.0 0.00 0.00 0.00 89 1014.2
20260905092333 76 281 2.0 2.0 0.00 0.00 0.00 89 1014.0
20260905091828 76 292 2.0 2.0 0.00 0.00 0.00 89 1014.2
20260905091327 75 286 1.0 2.0 0.00 0.00 0.00 89 1014.1
20260905090826 75 340 0.0 2.0 0.00 0.00 0.00 89 1014.2
20260905090322 75 295 1.0 2.0 0.00 0.00 0.00 89 1014.1
20260905085822 75 286 2.0 2.0 0.00 0.00 0.00 89 1014.0
20260905085316 75 349 0.0 1.0 0.00 0.00 0.00 89 1014.2
20260905084812 76 272 0.0 1.0 0.00 0.00 0.00 89 1014.1
20260905084311 76 317 2.0 2.0 0.00 0.00 0.00 89 1014.1
20260905083806 76 317 1.0 1.0 0.00 0.00 0.00 89 1014.2
20260905083302 76 286 0.0 2.0 0.00 0.00 0.00 88 1014.2
20260905082757 76 321 0.0 0.0 0.00 0.00 0.00 88 1014.2
20260905082254 76 348 0.0 2.0 0.00 0.00 0.00 88 1014.1
20260905081754 76 273 0.0 1.0 0.00 0.00 0.00 88 1014.3
20260905081249 76 258 0.0 1.0 0.00 0.00 0.00 88 1014.2
20260905080748 76 277 0.0 2.0 0.00 0.00 0.00 88 1014.1
20260905080248 76 308 0.0 2.0 0.00 0.00 0.00 88 1014.3
20260905075747 76 356 0.0 2.0 0.00 0.00 0.00 88 1014.1
20260905075247 77 291 1.0 2.0 0.00 0.00 0.00 88 1014.3
20260905074746 77 283 2.0 2.0 0.00 0.00 0.00 88 1014.2
20260905074242 77 283 2.0 2.0 0.00 0.00 0.00 88 1014.2
20260905073737 77 254 1.0 2.0 0.00 0.00 0.00 88 1014.3
20260905073232 77 322 2.0 2.0 0.00 0.00 0.00 88 1014.3
20260905072731 76 300 0.0 2.0 0.00 0.00 0.00 88 1014.5
20260905072227 76 340 0.0 1.0 0.00 0.00 0.00 88 1014.3
20260905071724 77 335 0.0 1.0 0.00 0.00 0.00 88 1014.3
20260905071220 77 14 0.0 0.0 0.00 0.00 0.00 88 1014.6
20260905070714 77 277 0.0 0.0 0.00 0.00 0.00 88 1014.4
20260905070210 77 330 1.0 1.0 0.00 0.00 0.00 88 1014.3
20260905065709 77 348 1.0 2.0 0.00 0.00 0.00 88 1014.5
20260905065203 77 284 1.0 1.0 0.00 0.00 0.00 88 1014.5
20260905064658 77 315 0.0 1.0 0.00 0.00 0.00 88 1014.5
20260905064154 77 312 0.0 2.0 0.00 0.00 0.00 88 1014.4
20260905063652 77 319 0.0 2.0 0.00 0.00 0.00 88 1014.5
20260905063149 77 291 2.0 2.0 0.00 0.00 0.00 88 1014.6
20260905062644 77 273 0.0 1.0 0.00 0.00 0.00 88 1014.5
20260905062143 77 286 0.0 1.0 0.00 0.00 0.00 88 1014.6
20260905061639 77 300 0.0 1.0 0.00 0.00 0.00 88 1014.3
20260905061138 77 300 1.0 2.0 0.00 0.00 0.00 88 1014.8
20260905060633 77 286 0.0 0.0 0.00 0.00 0.00 88 1014.7
20260905060130 77 261 0.0 0.0 0.00 0.00 0.00 87 1014.6
20260905055628 77 273 0.0 0.0 0.00 0.00 0.00 87 1014.6
20260905055124 77 300 0.0 0.0 0.00 0.00 0.00 87 1014.7
20260905054619 77 300 0.0 0.0 0.00 0.00 0.00 87 1014.8
20260905054115 77 300 0.0 1.0 0.00 0.00 0.00 87 1014.6
20260905053614 77 315 0.0 1.0 0.00 0.00 0.00 87 1014.6
20260905053110 77 297 0.0 1.0 0.00 0.00 0.00 87 1014.9
20260905052609 77 273 0.0 1.0 0.00 0.00 0.00 87 1014.8
20260905052103 78 293 1.0 2.0 0.00 0.00 0.00 87 1014.8
20260905051559 78 297 1.0 1.0 0.00 0.00 0.00 87 1014.8
20260905051056 78 288 1.0 2.0 0.00 0.00 0.00 87 1014.7
20260905050552 78 295 1.0 1.0 0.00 0.00 0.00 87 1014.8
20260905050049 78 300 1.0 2.0 0.00 0.00 0.00 87 1014.8
20260905045548 78 291 1.0 2.0 0.00 0.00 0.00 87 1015.0
20260905045044 78 297 1.0 2.0 0.00 0.00 0.00 87 1015.0
20260905044543 78 300 0.0 1.0 0.00 0.00 0.00 87 1014.9
20260905044038 78 323 0.0 1.0 0.00 0.00 0.00 87 1014.5
20260905043537 78 254 0.0 0.0 0.00 0.00 0.00 86 1014.9
20260905043033 78 300 0.0 0.0 0.00 0.00 0.00 86 1015.0
20260905042531 78 300 1.0 1.0 0.00 0.00 0.00 86 1014.9
20260905042027 78 322 0.0 1.0 0.00 0.00 0.00 86 1014.8
20260905041522 78 289 0.0 1.0 0.00 0.00 0.00 85 1014.8
20260905041018 78 328 0.0 1.0 0.00 0.00 0.00 85 1014.9
20260905040517 78 328 0.0 0.0 0.00 0.00 0.00 85 1014.9
20260905040016 78 340 0.0 1.0 0.00 0.00 0.00 84 1014.9
20260905035511 79 328 0.0 1.0 0.00 0.00 0.00 84 1014.8
20260905035008 79 315 0.0 0.0 0.00 0.00 0.00 84 1014.7
20260905034504 79 304 0.0 2.0 0.00 0.00 0.00 84 1014.7
20260905034003 80 314 1.0 2.0 0.00 0.00 0.00 83 1014.8
20260905033503 80 293 2.0 2.0 0.00 0.00 0.00 83 1014.9
20260905032958 80 292 2.0 2.0 0.00 0.00 0.00 82 1014.7
20260905032453 80 295 1.0 2.0 0.00 0.00 0.00 82 1014.8
20260905031948 80 295 1.0 1.0 0.00 0.00 0.00 82 1014.9
20260905031444 80 283 1.0 1.0 0.00 0.00 0.00 83 1014.8
20260905030939 79 283 1.0 2.0 0.00 0.00 0.00 83 1014.9
20260905030434 79 295 1.0 1.0 0.00 0.00 0.00 83 1014.8
20260905025933 79 314 1.0 1.0 0.00 0.00 0.00 83 1015.1
20260905025428 80 308 1.0 2.0 0.00 0.00 0.00 82 1015.0
20260905024925 80 323 1.0 1.0 0.00 0.00 0.00 82 1015.0
20260905024425 80 311 0.0 1.0 0.00 0.00 0.00 81 1014.9
20260905023921 80 328 0.0 1.0 0.00 0.00 0.00 81 1014.8
20260905023416 80 286 1.0 2.0 0.00 0.00 0.00 81 1014.9
20260905022915 80 287 0.0 0.0 0.00 0.00 0.00 80 1014.8
20260905022410 81 309 0.0 1.0 0.00 0.00 0.00 80 1014.8
20260905021906 81 315 0.0 1.0 0.00 0.00 0.00 80 1014.8
20260905021400 81 298 1.0 1.0 0.00 0.00 0.00 79 1014.6
20260905020855 81 307 1.0 1.0 0.00 0.00 0.00 79 1014.8
20260905020349 81 307 0.0 1.0 0.00 0.00 0.00 79 1014.8
20260905015849 82 300 0.0 1.0 0.00 0.00 0.00 78 1014.6
20260905015348 82 296 1.0 1.0 0.00 0.00 0.00 78 1014.6
20260905014848 82 300 1.0 1.0 0.00 0.00 0.00 78 1014.8
20260905014343 82 303 1.0 1.0 0.00 0.00 0.00 78 1014.7
20260905013844 82 324 2.0 2.0 0.00 0.00 0.00 77 1014.6
20260905013340 82 296 1.0 1.0 0.00 0.00 0.00 77 1014.4
20260905012835 83 300 0.0 1.0 0.00 0.00 0.00 76 1014.3
20260905012330 83 300 0.0 1.0 0.00 0.00 0.00 75 1014.4
20260905011827 83 311 0.0 1.0 0.00 0.00 0.00 75 1014.5
20260905011322 84 324 1.0 1.0 0.00 0.00 0.00 75 1014.2
20260905010817 84 314 1.0 2.0 0.00 0.00 0.00 74 1014.2
20260905010317 84 297 1.0 2.0 0.00 0.00 0.00 75 1014.1
20260905005814 84 316 1.0 2.0 0.00 0.00 0.00 72 1014.1
20260905005309 85 322 1.0 2.0 0.00 0.00 0.00 71 1014.2
20260905004804 85 296 1.0 1.0 0.00 0.00 0.00 70 1014.1
20260905004259 86 282 1.0 1.0 0.00 0.00 0.00 69 1014.1
20260905003753 86 300 0.0 1.0 0.00 0.00 0.00 68 1014.1
20260905003249 87 300 1.0 2.0 0.00 0.00 0.00 67 1014.0
20260905002745 88 298 2.0 2.0 0.00 0.00 0.00 67 1014.0
20260905002245 87 295 1.0 2.0 0.00 0.00 0.00 67 1013.8
20260905001740 88 298 1.0 2.0 0.00 0.00 0.00 68 1013.9
20260905001239 88 308 1.0 2.0 0.00 0.00 0.00 68 1013.9
20260905000734 89 236 0.0 1.0 0.00 0.00 0.00 66 1013.9
20260905000230 90 295 1.0 1.0 0.00 0.00 0.00 64 1014.0
20260904235726 90 291 1.0 2.0 0.00 0.00 0.00 62 1013.9
20260904235221 91 300 0.0 1.0 0.00 0.00 0.00 62 1013.8